{"data":{"norad_id":53535,"epoch":"2026-09-20T12:24:43.787808Z","epoch_age_seconds":76751,"freshness":"FRESH","line1":"1 53535U 22101J   26263.51717347 -.00060242  00000+0 -17660-2 0  9998","line2":"2 53535  53.1643 269.4810 0000198 198.3504 161.7491 15.34756722225711","mean_motion":15.34756722,"eccentricity":1.98e-5,"inclination_deg":53.1643,"raan_deg":269.481,"arg_perigee_deg":198.3504,"mean_anomaly_deg":161.7491,"bstar":-0.001766,"rev_number":22571,"period_min":93.825945138946,"perigee_km":461.50776496614,"apogee_km":461.77862026177,"semimajor_km":6839.780192614,"source":"CELESTRAK","updated_at":"2026-09-21T09:00:32.900120Z"}}